SCP
0 0 0 0 0 0 0 -0 -0 0 -0 -0 0 0 0 0 0 0 0 0 0 0 0 0 0 0 0 0 0 0 0 0 0 0 0 0 0 0 0 0 0 0 0
0 0 0 0 0 0 0 0 0 -0 -0 -0 -0 -0 0 -0 -0 0 0 0 -0 0 0 0 0 0 0 0 0 0 0 0 0 0 0 0 0 0 0 0 0 0 0
0 0 0 0 -0 0 0 0 -0 0 -0 0 0 -0 -0 0 0 0 0 0 0 0 0 0 0 0 0 0 0 0 0 0 0 0 0 0 0 0 0 0 0 0 0
0 0 -0 0 -0 -0 0 0 -0 0 -0 -0 -0 -0 0 0 0 -0 0 0 0 0 0 0 0 0 0 0 0 0 0 0 0 0 0 0 0 0 0 0 0 0 0
0 -0 -0 -0 -0 -0 -0 0 0 -0 -0 -0 -0 -0 -0 -0 -0 0 0 0 0 0 0 0 0 0 0 0 0 0 0 0 0 0 0 0 0 0 0 0 0 0 0
0 0 0 0 0 -0 0 0 0 -0 -0 -0 -0 -0 -0 0 0 0 0 0 0 0 0 0 0 0 0 0 0 0 0 0 0 0 0 0 0 0 0 0 0 0 0
-0 0 0 0 0 0 -0 -0 -0 -0 0 0 0 0 -0 0 0 0 0 0 0 0 0 0 0 0 0 0 0 0 0 0 0 0 0 0 0 0 0 0 0 0 -0
0 0 0 0 0 0 0 0 0 0 0 0 0 0 0 0 0 0 0 0 0 0 0 0 0 0 0 0 0 0 0 0 0 0 0 0 0 0 0 0 0 0 0
0 0 0 0 0 0 0 0 0 -0 -0 0 0 0 0 0 0 0 0 0 0 0 0 0 0 0 0 0 0 0 0 0 0 0 0 0 0 0 0 0 0 -0 -0
0 0 0 0 0 0 0 0 0 0 0 -0 0 0 0 0 0 0 0 0 0 0 0 0 0 0 0 0 0 0 0 0 0 0 0 0 0 0 -0 0 0 0 0
0 0 0 0 0 0 0 0 0 0 0 0 0 0 0 0 0 0 0 0 0 0 0 0 0 0 0 0 0 0 0 -0 -0 0 0 0 0 0 0 0 0 0 0
0 0 0 0 0 0 0 0 0 0 0 0 0 0 0 0 0 0 0 0 0 0 0 0 0 0 0 0 0 0 0 0 0 0 0 0 0 0 0 0 0 0 0
0 0 0 0 0 0 0 0 0 0 0 -0 -0 0 0 0 -0 0 0 0 0 0 0 -0 0 0 0 0 0 0 0 -0 0 0 0 -0 -0 -0 -0 0 0 0 0
-0 -0 0 0 0 0 0 0 0 0 0 0 -0 -0 0 -0 -0 -0 0 0 0 0 0 -0 0 0 0 0 -0 -0 0 0 0 0 -0 -0 -0 -0 0 0 0 0 0
-0 0 0 0 0 0 0 0 0 0 0 0 0 0 -0 0 -0 -0 0 0 0 0 0 0 0 -0 -0 -0 -0 0 0 -0 -0 -0 -0 -0 -0 -0 -0 0 0 0 0
-0 0 -0 0 0 0 0 0 0 0 0 0 0 -0 -0 0 0 0 0 0 0 -0 0 0 0 0 0 0 0 0 0 -0 -0 -0 -0 -0 -0 0 0 0 0 0 0
-0 0 -0 0 0 0 0 -0 0 0 0 0 0 -0 -0 -0 0 0 0 0 0 0 -0 0 0 0 0 0 0 0 0 0 0 -0 -0 0 0 0 0 0 0 0 0
-0 -0 0 0 -0 -0 0 -0 0 0 0 0 0 -0 -0 0 0 0 0 0 0 0 -0 -0 0 0 0 0 0 0 0 0 0 0 0 0 0 0 0 0 0 0 0
-0 0 0 0 0 0 0 0 -0 0 0 0 0 0 0 0 0 0 0 0 0 0 0 0 0 0 0 0 0 0 0 0 0 0 0 0 0 0 0 0 0 0 0
0 0 0 0 0 0 0 0 0 0 0 0 0 0 0 0 0 0 0 0 0 0 0 0 0 0 0 0 0 0 0 0 0 0 0 0 0 0 0 0 0 0 0
0 0 0 0 0 0 0 0 0 0 0 0 0 0 0 -0 -0 0 -0 0 0 0 0 0 0 0 0 0 0 0 0 0 0 0 0 0 0 0 0 0 0 0 0
0 0 0 0 0 0 0 0 0 0 0 0 0 0 0 0 -0 -0 -0 0 0 0 0 0 0 0 0 0 0 0 0 0 0 0 0 0 0 0 0 0 0 0 0
0 0 0 0 0 0 0 0 0 0 0 0 0 0 0 0 0 0 0 0 0 0 0 0 0 0 0 0 0 0 0 0 0 0 0 0 0 0 0 0 0 0 0
0 0 0 0 0 0 0 0 0 0 0 0 0 0 0 0 0 0 0 0 0 0 0 0 0 0 0 0 0 0 0 0 0 0 0 0 0 0 0 0 0 0 0
0 0 0 0 0 0 0 0 0 0 0 0 0 0 0 0 0 0 0 0 0 0 0 0 0 0 0 0 0 0 0 0 0 0 0 0 0 0 0 0 0 0 0
0 0 0 0 0 0 0 0 0 0 0 0 0 0 0 0 0 0 0 0 0 0 0 0 0 0 0 0 0 0 0 0 0 0 0 0 0 0 0 0 0 0 0
Wind_Speed_500mb
21 22 21 12 15 14 12 14 8 19 28 23 26 18 13 17 17 29 21 19 16 19 17 18 21 23 22 18 19 19 18 17 17 17 16 16 16 16 14 14 14 14 14
24 21 21 23 26 28 24 20 20 23 23 24 24 23 22 22 19 28 30 24 23 22 21 21 21 26 24 25 24 22 22 20 21 21 20 20 19 18 18 18 18 17 17
27 27 28 28 28 29 32 31 33 26 34 30 29 31 31 30 32 29 32 33 33 34 29 22 25 27 28 26 27 29 29 26 26 24 21 18 21 20 19 21 24 24 23
31 32 33 32 30 32 34 37 36 36 36 33 40 41 42 42 38 41 42 35 35 30 31 34 34 28 31 35 31 32 34 32 27 24 26 24 22 25 27 27 30 28 29
30 35 35 33 30 37 27 26 23 36 29 29 35 37 42 45 41 41 40 41 41 42 45 40 42 39 33 37 34 29 34 34 31 28 23 24 21 18 19 23 27 34 36
12 31 30 23 24 27 29 23 26 25 23 32 28 32 30 34 42 43 38 44 46 40 45 44 44 45 31 34 29 30 31 33 31 29 28 26 26 26 25 25 24 26 32
7 14 15 13 13 18 22 18 20 21 26 23 31 35 34 37 38 41 39 35 42 41 38 41 49 40 32 27 25 25 29 31 32 30 30 32 30 34 33 35 37 38 38
10 7 7 7 6 8 8 10 14 18 23 23 30 35 39 39 38 44 46 45 43 40 44 46 43 33 29 35 29 36 42 28 25 26 27 30 32 34 36 37 37 40 41
15 7 6 4 8 8 12 15 15 20 19 19 27 26 11 11 11 13 25 35 39 40 27 30 41 37 29 32 27 35 25 30 24 27 25 27 31 31 31 36 37 36 35
7 3 5 7 15 15 16 23 23 24 25 23 21 24 27 29 12 7 7 17 18 14 16 15 20 19 18 21 26 24 15 19 23 23 23 31 33 26 22 24 28 32 33
13 20 7 8 11 14 12 10 12 13 15 15 17 19 23 26 30 30 12 11 19 16 16 11 14 12 4 2 3 19 12 19 20 23 30 34 22 20 21 23 23 23 23
16 16 14 13 10 7 5 0 3 4 6 10 11 11 10 10 11 23 24 14 9 15 2 15 9 6 4 7 7 12 18 18 18 18 19 14 13 15 17 17 19 21 22
12 12 8 11 15 14 12 8 6 5 10 9 13 6 9 14 12 14 22 23 24 28 18 20 20 9 13 14 14 13 13 10 7 6 7 10 12 14 13 12 12 14 14
12 14 5 9 14 14 13 16 12 12 11 9 6 9 3 11 14 14 21 30 30 19 16 17 13 13 11 12 10 7 6 6 3 2 4 6 6 6 8 10 12 15 17
8 11 12 17 19 14 15 12 11 3 8 13 16 12 9 10 5 11 16 20 26 29 21 20 17 13 5 6 8 8 5 4 4 3 4 5 5 5 7 10 15 17 16
21 26 28 31 27 17 12 12 12 16 12 15 15 18 16 13 10 9 11 17 26 23 26 29 20 19 15 10 7 7 4 4 3 3 3 4 4 6 9 14 16 15 15
22 23 21 17 20 18 13 16 18 17 17 19 16 13 17 19 15 14 14 16 24 23 27 33 27 24 19 14 9 7 7 5 6 5 5 3 4 7 12 13 14 15 15
19 19 17 13 15 17 14 17 21 19 19 21 24 26 24 19 17 17 16 16 16 18 18 33 35 29 24 13 8 5 7 6 7 3 4 3 6 7 10 13 14 14 14
12 14 14 12 15 19 14 17 21 26 25 25 26 28 26 26 23 17 16 15 15 16 17 22 34 29 23 18 13 6 7 9 5 3 5 6 6 7 10 12 15 15 16
9 11 14 17 13 14 16 14 13 20 24 28 28 28 27 25 23 23 21 15 16 18 24 19 25 24 19 17 14 9 8 8 5 4 5 3 5 11 13 17 20 22 21
9 11 17 13 6 7 11 15 11 16 22 26 26 27 25 21 18 21 22 25 17 20 24 24 25 22 19 16 12 12 12 9 3 3 1 1 7 16 20 31 29 26 25
17 17 13 7 2 10 15 10 13 15 20 23 19 20 20 21 18 17 17 21 24 18 21 20 20 18 17 13 9 9 11 7 3 3 4 4 1 8 16 24 23 26 27
22 23 17 11 6 12 16 11 13 15 15 14 12 13 11 19 18 15 13 14 16 17 16 15 16 16 14 9 6 8 6 5 3 3 5 9 8 0 1 10 15 17 21
24 25 21 16 8 12 15 15 12 12 13 15 16 10 7 10 14 15 15 16 16 14 13 10 6 7 4 10 12 9 6 6 3 4 4 2 8 5 8 12 13 14 17
29 28 29 19 15 13 15 18 15 13 7 8 11 11 10 8 11 14 12 14 16 16 16 14 14 18 11 5 6 10 13 7 5 17 12 5 8 12 12 6 12 16 15
33 31 33 23 19 17 20 21 19 18 10 8 11 11 10 9 6 9 10 7 9 15 24 24 22 17 17 18 17 4 11 9 13 16 8 7 4 6 14 10 11 14 15
Wind_Direction_500mb
234 208 211 226 235 235 234 238 229 241 235 245 231 238 250 238 252 255 273 255 245 242 272 281 259 258 246 234 228 226 226 227 227 228 226 229 235 234 242 246 247 250 253
223 216 231 233 241 232 241 267 245 245 252 231 221 227 242 244 246 254 259 272 280 259 273 291 265 259 259 246 238 232 230 229 230 230 232 232 235 241 249 251 248 253 256
226 221 222 230 236 249 259 262 260 245 239 237 251 239 238 243 249 242 253 262 265 269 274 282 285 255 248 250 244 239 232 233 232 233 239 248 257 263 265 269 267 260 254
222 230 229 235 250 273 277 251 251 251 248 247 247 241 237 240 244 240 249 253 260 272 274 276 272 267 245 238 244 244 242 238 239 248 249 255 260 267 262 269 263 262 262
237 230 229 242 246 267 265 269 229 231 240 248 246 251 254 253 251 244 237 245 254 260 261 262 269 264 259 244 240 245 247 248 252 254 256 257 261 276 271 290 272 259 261
234 212 215 244 250 251 258 266 247 249 259 259 254 258 256 255 252 252 258 254 246 255 256 262 258 266 265 269 254 250 254 259 256 253 262 266 264 270 269 274 284 285 282
157 191 220 247 246 247 253 259 262 254 250 252 255 262 262 260 257 249 254 259 253 247 250 269 260 260 247 250 246 248 258 262 262 267 270 274 264 269 273 268 273 284 291
115 128 128 172 203 224 249 239 249 263 262 259 264 271 275 277 269 268 257 255 252 247 253 268 250 239 255 236 255 299 248 252 263 273 276 277 268 269 273 270 275 276 278
109 115 83 22 285 265 240 241 265 256 270 279 269 253 246 240 293 300 253 244 249 250 257 249 241 242 238 239 241 269 251 216 235 256 265 278 282 275 276 269 278 283 283
116 23 290 287 245 253 265 264 273 274 282 288 272 268 259 251 277 300 281 231 219 252 242 177 232 274 289 242 265 180 195 233 236 235 260 275 284 283 281 274 278 282 287
66 10 3 313 294 276 270 261 255 259 282 292 288 285 265 251 254 246 275 217 235 265 241 218 229 237 265 288 90 165 229 218 215 247 263 275 273 276 282 284 288 293 299
32 15 27 30 46 52 54 342 302 324 342 338 309 293 274 227 220 225 214 196 139 97 81 155 172 165 137 159 190 239 227 236 243 247 249 260 276 289 300 305 303 305 306
19 32 19 50 57 58 55 48 18 3 358 13 22 326 266 249 238 216 215 191 153 135 118 126 124 115 109 111 125 126 146 165 188 219 268 285 298 304 310 319 328 328 328
44 42 51 70 73 73 71 67 43 51 53 58 52 52 50 248 240 216 214 201 160 150 139 143 118 116 119 133 132 139 167 165 197 260 301 318 332 333 336 339 342 337 339
41 42 90 88 101 78 69 41 12 92 53 59 68 76 80 75 144 199 206 219 214 162 166 161 140 137 172 167 154 146 145 118 92 40 352 331 331 341 355 359 349 346 351
74 77 76 66 73 104 59 35 62 95 98 91 89 89 94 96 94 134 165 181 201 212 183 189 184 177 185 165 141 144 163 138 98 43 26 33 30 15 356 346 343 346 350
85 83 85 91 85 87 61 43 46 83 98 94 86 94 91 85 96 114 141 156 188 211 204 178 181 176 177 173 183 160 126 114 108 101 81 53 18 347 342 351 356 358 360
104 110 110 109 106 107 84 51 66 86 82 82 92 86 98 103 93 110 122 144 171 188 210 175 175 182 186 175 156 137 144 130 116 80 8 343 346 356 25 19 16 15 11
103 137 133 117 110 112 103 77 67 68 76 82 87 91 83 94 94 81 111 130 146 150 164 175 176 181 183 165 162 175 156 132 123 50 334 335 355 16 24 22 18 10 360
115 132 127 117 116 103 106 98 76 76 87 87 90 94 97 95 91 87 94 104 115 126 135 144 164 162 164 166 169 170 179 171 168 331 301 334 18 25 38 34 16 6 360
147 129 126 138 110 109 131 119 123 97 100 93 92 97 95 89 88 90 89 89 110 136 145 146 154 158 165 168 169 170 155 139 120 334 298 287 46 55 32 13 16 17 15
165 134 149 177 150 159 155 137 127 123 112 104 94 97 93 98 93 92 87 95 91 96 125 137 141 136 128 123 128 144 147 133 115 311 212 189 144 48 52 35 35 29 33
180 173 194 207 207 180 160 158 139 135 140 125 122 91 106 95 101 103 97 87 92 104 110 129 142 147 146 142 151 151 166 226 214 324 206 213 236 298 66 12 4 10 22
206 201 212 212 202 178 172 168 155 147 153 152 177 181 156 107 105 112 117 119 116 118 123 119 112 128 149 189 199 191 170 210 218 241 207 200 231 325 25 4 350 334 359
219 213 220 221 210 195 182 181 170 162 184 150 153 167 164 150 126 121 125 122 116 112 110 108 106 94 91 101 205 224 213 240 251 209 203 212 247 270 284 304 310 320 326
244 217 222 226 223 217 197 191 188 196 212 212 194 175 176 180 167 135 130 107 89 100 112 102 90 87 87 83 57 15 226 238 131 167 213 192 228 259 274 321 292 298 306
Wind_Speed_850mb
21 22 21 12 15 14 12 14 8 19 28 23 26 18 13 17 17 29 21 19 16 19 17 18 21 23 22 18 19 19 18 17 17 17 16 16 16 16 14 14 14 14 14
24 21 21 23 26 28 24 20 20 23 23 24 24 23 22 22 19 28 30 24 23 22 21 21 21 26 24 25 24 22 22 20 21 21 20 20 19 18 18 18 18 17 17
27 27 28 28 28 29 32 31 33 26 34 30 29 31 31 30 32 29 32 33 33 34 29 22 25 27 28 26 27 29 29 26 26 24 21 18 21 20 19 21 24 24 23
31 32 33 32 30 32 34 37 36 36 36 33 40 41 42 42 38 41 42 35 35 30 31 34 34 28 31 35 31 32 34 32 27 24 26 24 22 25 27 27 30 28 29
30 35 35 33 30 37 27 26 23 36 29 29 35 37 42 45 41 41 40 41 41 42 45 40 42 39 33 37 34 29 34 34 31 28 23 24 21 18 19 23 27 34 36
12 31 30 23 24 27 29 23 26 25 23 32 28 32 30 34 42 43 38 44 46 40 45 44 44 45 31 34 29 30 31 33 31 29 28 26 26 26 25 25 24 26 32
7 14 15 13 13 18 22 18 20 21 26 23 31 35 34 37 38 41 39 35 42 41 38 41 49 40 32 27 25 25 29 31 32 30 30 32 30 34 33 35 37 38 38
10 7 7 7 6 8 8 10 14 18 23 23 30 35 39 39 38 44 46 45 43 40 44 46 43 33 29 35 29 36 42 28 25 26 27 30 32 34 36 37 37 40 41
15 7 6 4 8 8 12 15 15 20 19 19 27 26 11 11 11 13 25 35 39 40 27 30 41 37 29 32 27 35 25 30 24 27 25 27 31 31 31 36 37 36 35
7 3 5 7 15 15 16 23 23 24 25 23 21 24 27 29 12 7 7 17 18 14 16 15 20 19 18 21 26 24 15 19 23 23 23 31 33 26 22 24 28 32 33
13 20 7 8 11 14 12 10 12 13 15 15 17 19 23 26 30 30 12 11 19 16 16 11 14 12 4 2 3 19 12 19 20 23 30 34 22 20 21 23 23 23 23
16 16 14 13 10 7 5 0 3 4 6 10 11 11 10 10 11 23 24 14 9 15 2 15 9 6 4 7 7 12 18 18 18 18 19 14 13 15 17 17 19 21 22
12 12 8 11 15 14 12 8 6 5 10 9 13 6 9 14 12 14 22 23 24 28 18 20 20 9 13 14 14 13 13 10 7 6 7 10 12 14 13 12 12 14 14
12 14 5 9 14 14 13 16 12 12 11 9 6 9 3 11 14 14 21 30 30 19 16 17 13 13 11 12 10 7 6 6 3 2 4 6 6 6 8 10 12 15 17
8 11 12 17 19 14 15 12 11 3 8 13 16 12 9 10 5 11 16 20 26 29 21 20 17 13 5 6 8 8 5 4 4 3 4 5 5 5 7 10 15 17 16
21 26 28 31 27 17 12 12 12 16 12 15 15 18 16 13 10 9 11 17 26 23 26 29 20 19 15 10 7 7 4 4 3 3 3 4 4 6 9 14 16 15 15
22 23 21 17 20 18 13 16 18 17 17 19 16 13 17 19 15 14 14 16 24 23 27 33 27 24 19 14 9 7 7 5 6 5 5 3 4 7 12 13 14 15 15
19 19 17 13 15 17 14 17 21 19 19 21 24 26 24 19 17 17 16 16 16 18 18 33 35 29 24 13 8 5 7 6 7 3 4 3 6 7 10 13 14 14 14
12 14 14 12 15 19 14 17 21 26 25 25 26 28 26 26 23 17 16 15 15 16 17 22 34 29 23 18 13 6 7 9 5 3 5 6 6 7 10 12 15 15 16
9 11 14 17 13 14 16 14 13 20 24 28 28 28 27 25 23 23 21 15 16 18 24 19 25 24 19 17 14 9 8 8 5 4 5 3 5 11 13 17 20 22 21
9 11 17 13 6 7 11 15 11 16 22 26 26 27 25 21 18 21 22 25 17 20 24 24 25 22 19 16 12 12 12 9 3 3 1 1 7 16 20 31 29 26 25
17 17 13 7 2 10 15 10 13 15 20 23 19 20 20 21 18 17 17 21 24 18 21 20 20 18 17 13 9 9 11 7 3 3 4 4 1 8 16 24 23 26 27
22 23 17 11 6 12 16 11 13 15 15 14 12 13 11 19 18 15 13 14 16 17 16 15 16 16 14 9 6 8 6 5 3 3 5 9 8 0 1 10 15 17 21
24 25 21 16 8 12 15 15 12 12 13 15 16 10 7 10 14 15 15 16 16 14 13 10 6 7 4 10 12 9 6 6 3 4 4 2 8 5 8 12 13 14 17
29 28 29 19 15 13 15 18 15 13 7 8 11 11 10 8 11 14 12 14 16 16 16 14 14 18 11 5 6 10 13 7 5 17 12 5 8 12 12 6 12 16 15
33 31 33 23 19 17 20 21 19 18 10 8 11 11 10 9 6 9 10 7 9 15 24 24 22 17 17 18 17 4 11 9 13 16 8 7 4 6 14 10 11 14 15
Wind_Direction_850mb
234 208 211 226 235 235 234 238 229 241 235 245 231 238 250 238 252 255 273 255 245 242 272 281 259 258 246 234 228 226 226 227 227 228 226 229 235 234 242 246 247 250 253
223 216 231 233 241 232 241 267 245 245 252 231 221 227 242 244 246 254 259 272 280 259 273 291 265 259 259 246 238 232 230 229 230 230 232 232 235 241 249 251 248 253 256
226 221 222 230 236 249 259 262 260 245 239 237 251 239 238 243 249 242 253 262 265 269 274 282 285 255 248 250 244 239 232 233 232 233 239 248 257 263 265 269 267 260 254
222 230 229 235 250 273 277 251 251 251 248 247 247 241 237 240 244 240 249 253 260 272 274 276 272 267 245 238 244 244 242 238 239 248 249 255 260 267 262 269 263 262 262
237 230 229 242 246 267 265 269 229 231 240 248 246 251 254 253 251 244 237 245 254 260 261 262 269 264 259 244 240 245 247 248 252 254 256 257 261 276 271 290 272 259 261
234 212 215 244 250 251 258 266 247 249 259 259 254 258 256 255 252 252 258 254 246 255 256 262 258 266 265 269 254 250 254 259 256 253 262 266 264 270 269 274 284 285 282
157 191 220 247 246 247 253 259 262 254 250 252 255 262 262 260 257 249 254 259 253 247 250 269 260 260 247 250 246 248 258 262 262 267 270 274 264 269 273 268 273 284 291
115 128 128 172 203 224 249 239 249 263 262 259 264 271 275 277 269 268 257 255 252 247 253 268 250 239 255 236 255 299 248 252 263 273 276 277 268 269 273 270 275 276 278
109 115 83 22 285 265 240 241 265 256 270 279 269 253 246 240 293 300 253 244 249 250 257 249 241 242 238 239 241 269 251 216 235 256 265 278 282 275 276 269 278 283 283
116 23 290 287 245 253 265 264 273 274 282 288 272 268 259 251 277 300 281 231 219 252 242 177 232 274 289 242 265 180 195 233 236 235 260 275 284 283 281 274 278 282 287
66 10 3 313 294 276 270 261 255 259 282 292 288 285 265 251 254 246 275 217 235 265 241 218 229 237 265 288 90 165 229 218 215 247 263 275 273 276 282 284 288 293 299
32 15 27 30 46 52 54 342 302 324 342 338 309 293 274 227 220 225 214 196 139 97 81 155 172 165 137 159 190 239 227 236 243 247 249 260 276 289 300 305 303 305 306
19 32 19 50 57 58 55 48 18 3 358 13 22 326 266 249 238 216 215 191 153 135 118 126 124 115 109 111 125 126 146 165 188 219 268 285 298 304 310 319 328 328 328
44 42 51 70 73 73 71 67 43 51 53 58 52 52 50 248 240 216 214 201 160 150 139 143 118 116 119 133 132 139 167 165 197 260 301 318 332 333 336 339 342 337 339
41 42 90 88 101 78 69 41 12 92 53 59 68 76 80 75 144 199 206 219 214 162 166 161 140 137 172 167 154 146 145 118 92 40 352 331 331 341 355 359 349 346 351
74 77 76 66 73 104 59 35 62 95 98 91 89 89 94 96 94 134 165 181 201 212 183 189 184 177 185 165 141 144 163 138 98 43 26 33 30 15 356 346 343 346 350
85 83 85 91 85 87 61 43 46 83 98 94 86 94 91 85 96 114 141 156 188 211 204 178 181 176 177 173 183 160 126 114 108 101 81 53 18 347 342 351 356 358 360
104 110 110 109 106 107 84 51 66 86 82 82 92 86 98 103 93 110 122 144 171 188 210 175 175 182 186 175 156 137 144 130 116 80 8 343 346 356 25 19 16 15 11
103 137 133 117 110 112 103 77 67 68 76 82 87 91 83 94 94 81 111 130 146 150 164 175 176 181 183 165 162 175 156 132 123 50 334 335 355 16 24 22 18 10 360
115 132 127 117 116 103 106 98 76 76 87 87 90 94 97 95 91 87 94 104 115 126 135 144 164 162 164 166 169 170 179 171 168 331 301 334 18 25 38 34 16 6 360
147 129 126 138 110 109 131 119 123 97 100 93 92 97 95 89 88 90 89 89 110 136 145 146 154 158 165 168 169 170 155 139 120 334 298 287 46 55 32 13 16 17 15
165 134 149 177 150 159 155 137 127 123 112 104 94 97 93 98 93 92 87 95 91 96 125 137 141 136 128 123 128 144 147 133 115 311 212 189 144 48 52 35 35 29 33
180 173 194 207 207 180 160 158 139 135 140 125 122 91 106 95 101 103 97 87 92 104 110 129 142 147 146 142 151 151 166 226 214 324 206 213 236 298 66 12 4 10 22
206 201 212 212 202 178 172 168 155 147 153 152 177 181 156 107 105 112 117 119 116 118 123 119 112 128 149 189 199 191 170 210 218 241 207 200 231 325 25 4 350 334 359
219 213 220 221 210 195 182 181 170 162 184 150 153 167 164 150 126 121 125 122 116 112 110 108 106 94 91 101 205 224 213 240 251 209 203 212 247 270 284 304 310 320 326
244 217 222 226 223 217 197 191 188 196 212 212 194 175 176 180 167 135 130 107 89 100 112 102 90 87 87 83 57 15 226 238 131 167 213 192 228 259 274 321 292 298 306